STARLINK-32143, 60296

Orbit data source: Space-Track

STARLINK-32143, 60296 is a payload satellite owned by SpaceX/Seattle (US) in LEO that was launched on Sun, 28 Jul 2024 UTC via an FALCON 9 launch vehicle from the Air Force Eastern Test Range (AFETR). Payload-class satellites include a variety of spacecraft equipped with specific instruments for various scientific and technological missions. These include communications satellites like Starlink; space stations such as the ISS; scientific satellites like the Hubble; Earth observation satellites from companies like Planet Labs, Umbra, and HawkEye 360; GPS; miniature CubeSats for education and research; and military/defense satellites.

Loading next visibility...
Identifier
60296, 2024-132U
Orbit
LEO
Country
Flag of USUS
Related business
Manufacturer
SpaceX/Seattle
Mission
Operational Commercial Communications
Bus & Motor
STARLINK V2M, Unknown motor
Mass
730 kg wet, ~700 kg dry
Launch date (UTC)
2024-07-28 (2 years ago)
Launch vehicle
FALCON 9
Launch site
Air Force Eastern Test Range (AFETR)
Object type
Payload
Rocket body
Debris
Shape & HBR
Box + 2 Pan, 17.7 m
Radar Cross Section
33.884 m², Large (>1 m²)

Expand to show TLE details & history
Last TLE update: 7 hours ago

TLE from 7 hours ago
0 STARLINK-32143
1 60296U 24132U   26127.24573593  .00000103  00000-0  15075-4 0  9997
2 60296  53.1601 140.5813 0001246  82.0101 278.1042 15.31701148100521
Epoch: 2026-05-07T05:53Z
TLE epoch observation values (Epoch: 2026-05-07T05:53:51.584Z)
Latitude
Longitude
-172.97827°
Altitude
471.517 km
Speed
7.632 km/s
True Right ascension
09h 22m 19s
True Declination
0° 00' 00"
Sunlit
Object was in daylight at epoch
Visualization orbit readout
Latitude
Unknown
Longitude
Unknown
Altitude
Unknown
Speed
Unknown
Apparent Right ascension
Unknown
Apparent Declination
Unknown
Sunlit
N/A
Visualization observer readout
Local Sidereal Time
20:55:49
Azimuth
Unknown
Elevation
Unknown
Doppler factor
Unknown
Orbital elements
Apogee altitude
471.847 km
Perigee altitude
470.14 km
Semi-major axis
6,849.13 km
Eccentricity
0.00012
Inclination
53.1601°
RAAN
140.5813°
Arg. of periapsis
82.0101°
True anomaly
278.09006°
Mean anomaly
278.1042°
Eccentric anomaly
278.09713°
Mean motion
3.82904 °/min
Orbital period
94.02 mins
BSTAR
0.000015075
Loading maneuver chart data...
Computing Atmospheric mass density...
Loading historical data...
Loading historical data...
Loading historical data...
Loading historical data...
Loading historical data...
Loading historical data...
Loading historical data...

Documentation

Showing up to 5 results
|